TimeEDT,TemperatureF,Dew PointF,Humidity,Sea Level PressureIn,VisibilityMPH,Wind Direction,Wind SpeedMPH,Gust SpeedMPH,PrecipitationIn,Events,Conditions,WindDirDegrees,DateUTC
12:53 AM,39.9,30.0,68,30.16,10.0,NE,8.1,-,0.00,,Overcast,50,2014-04-03 04:53:00
1:53 AM,39.9,30.0,68,30.17,10.0,NE,12.7,20.7,N/A,,Overcast,50,2014-04-03 05:53:00
2:53 AM,39.0,30.0,70,30.14,10.0,ENE,9.2,-,N/A,,Overcast,70,2014-04-03 06:53:00
3:53 AM,37.9,28.9,70,30.14,10.0,NE,11.5,-,N/A,,Overcast,50,2014-04-03 07:53:00
4:53 AM,37.0,28.0,70,30.14,10.0,ENE,10.4,19.6,N/A,,Overcast,70,2014-04-03 08:53:00
5:53 AM,37.0,25.0,62,30.15,10.0,ENE,15.0,-,N/A,,Overcast,60,2014-04-03 09:53:00
6:53 AM,37.0,25.0,62,30.13,10.0,East,18.4,26.5,N/A,,Overcast,80,2014-04-03 10:53:00
7:53 AM,36.0,26.1,67,30.13,10.0,ENE,13.8,26.5,0.00,,Overcast,70,2014-04-03 11:53:00
8:53 AM,36.0,25.0,64,30.10,10.0,ENE,16.1,27.6,0.00,,Overcast,70,2014-04-03 12:53:00
9:53 AM,35.1,27.0,72,30.12,6.0,ENE,10.4,-,0.03,Rain,Rain,60,2014-04-03 13:53:00
10:53 AM,34.0,28.0,79,30.09,4.0,ENE,15.0,25.3,0.09,Rain,Rain,60,2014-04-03 14:53:00
11:53 AM,33.1,28.0,82,30.02,6.0,ENE,19.6,26.5,0.10,Rain,Light Rain,60,2014-04-03 15:53:00
12:53 PM,33.1,28.9,85,30.02,3.0,NE,17.3,21.9,0.14,Rain,Light Freezing Rain,50,2014-04-03 16:53:00
1:01 PM,33.1,28.9,85,30.00,2.0,NE,17.3,26.5,0.03,Rain,Light Freezing Rain,50,2014-04-03 17:01:00
1:09 PM,33.1,30.0,89,30.00,1.8,NE,16.1,26.5,0.07,Rain,Light Freezing Rain,50,2014-04-03 17:09:00
1:45 PM,33.1,30.0,89,29.99,1.8,NE,13.8,25.3,0.27,Rain,Light Freezing Rain,50,2014-04-03 17:45:00
1:53 PM,33.1,30.0,89,30.00,1.8,NE,10.4,19.6,0.30,Rain,Light Freezing Rain,50,2014-04-03 17:53:00
1:57 PM,33.1,30.0,89,29.98,1.8,NE,13.8,18.4,0.01,Rain,Heavy Rain,50,2014-04-03 17:57:00
2:04 PM,33.1,30.0,89,29.97,2.0,ENE,15.0,23.0,0.04,Rain,Rain,60,2014-04-03 18:04:00
2:17 PM,33.1,30.0,89,29.96,3.0,NE,16.1,24.2,0.06,Rain,Rain,50,2014-04-03 18:17:00
2:43 PM,34.0,30.0,85,29.94,2.5,NE,18.4,27.6,0.11,Rain,Rain,50,2014-04-03 18:43:00
2:51 PM,33.8,30.2,87,29.93,4.0,ENE,18.4,27.6,0.11,Rain,Light Rain,60,2014-04-03 18:51:00
2:53 PM,34.0,30.9,89,29.94,4.0,ENE,19.6,27.6,0.12,Rain,Light Rain,60,2014-04-03 18:53:00
3:53 PM,34.0,30.9,89,29.90,2.5,NE,18.4,28.8,0.05,Rain,Rain,50,2014-04-03 19:53:00
4:12 PM,34.0,30.9,89,29.88,3.0,ENE,17.3,32.2,0.02,Rain,Light Rain,60,2014-04-03 20:12:00
4:29 PM,34.0,30.9,89,29.87,2.5,ENE,16.1,28.8,0.06,Rain,Rain,60,2014-04-03 20:29:00
4:36 PM,34.0,30.9,89,29.88,4.0,ENE,15.0,25.3,0.07,Rain,Light Rain,70,2014-04-03 20:36:00
4:53 PM,34.0,30.9,89,29.88,2.0,ENE,18.4,25.3,0.10,Rain,Rain,60,2014-04-03 20:53:00
5:50 PM,35.6,32.0,87,29.84,3.0,East,16.1,25.3,0.05,Rain,Light Rain,80,2014-04-03 21:50:00
5:53 PM,35.1,32.0,89,29.86,3.0,ENE,15.0,25.3,0.05,Rain,Light Rain,70,2014-04-03 21:53:00
6:02 PM,35.1,32.0,89,29.85,2.5,East,17.3,24.2,0.01,Rain,Light Rain,80,2014-04-03 22:02:00
6:21 PM,36.0,33.1,89,29.85,1.5,ENE,12.7,21.9,0.02,Rain,Light Rain,70,2014-04-03 22:21:00
6:49 PM,35.6,33.8,93,29.85,2.5,ENE,15.0,20.7,0.03,Rain,Light Rain,70,2014-04-03 22:49:00
6:53 PM,36.0,33.1,89,29.86,2.0,ENE,13.8,20.7,0.03,,Overcast,70,2014-04-03 22:53:00
7:02 PM,36.0,34.0,93,29.84,1.5,ENE,12.7,21.9,0.01,Rain,Light Rain,70,2014-04-03 23:02:00
7:21 PM,36.0,34.0,93,29.83,2.5,ENE,12.7,21.9,0.01,Rain,Light Rain,70,2014-04-03 23:21:00
7:31 PM,36.0,34.0,93,29.84,4.0,ENE,13.8,21.9,0.01,,Overcast,70,2014-04-03 23:31:00
7:53 PM,36.0,34.0,93,29.86,6.0,ENE,11.5,24.2,0.01,,Overcast,60,2014-04-03 23:53:00
8:16 PM,36.0,34.0,93,29.84,2.0,NE,16.1,25.3,0.01,Rain,Light Rain,40,2014-04-04 00:16:00
8:27 PM,35.1,33.1,92,29.85,2.5,NE,12.7,20.7,0.01,,Overcast,40,2014-04-04 00:27:00
8:50 PM,35.6,33.8,93,29.85,3.0,NE,11.5,21.9,0.02,,Overcast,50,2014-04-04 00:50:00
8:53 PM,35.1,33.1,92,29.87,2.5,NE,11.5,21.9,0.02,,Overcast,50,2014-04-04 00:53:00
9:53 PM,35.1,33.1,92,29.86,2.0,ENE,15.0,26.5,0.00,,Overcast,60,2014-04-04 01:53:00
10:27 PM,35.1,33.1,92,29.84,3.0,NE,11.5,-,0.01,,Overcast,50,2014-04-04 02:27:00
11:53 PM,35.1,33.1,92,29.82,4.0,ENE,10.4,-,0.00,,Overcast,60,2014-04-04 03:53:00